User: anonymous   Login
Location: Unspecified
(0.0000°N, 0.0000°E)
Time: 00:45:35
(UTC+00:00)
Language:

STARLINK-30366 - Orbit

View from above orbital plane
View from above orbital plane
View from above satellite
View from above satellite

Ground track
Ground track

The orbit is defined by the following mean orbital elements,

1 57749U          26145.35527505 +.00000000 +00000-0 +30424-4 0 00002
2 57749  43.0030 102.7154 0001604 274.3619  85.7049 15.25912702    04
Epoch (UTC): 25 May 2026 08:31:35
Eccentricity: 0.0001604
inclination: 43.0030°
perigee height: 487 km
apogee height: 489 km
right ascension of ascending node: 102.7154°
argument of perigee: 274.3619°
revolutions per day: 15.25912702
mean anomaly at epoch: 85.7049°

The dashed part of the orbit path shows where the satellite is in the earth's shadow,  

DLR